{"data":{"norad_id":69032,"intl_designator":"2026-101H","name":"STARLINK-37596","alt_names":[],"object_type":"PAYLOAD","status":"ACTIVE","operator":null,"country":"US","launch_date":"2026-05-06","launch_site_code":"AFWTR","launch_vehicle":null,"mission":null,"orbit_class":"UNKNOWN","rcs_meters":null,"size_class":null,"mass_kg":null,"dimensions":null,"purposes":["comms"],"wikipedia_slug":null,"has_3d_model":false,"image_url":null,"decayed_at":null,"tle_current":{"epoch":"2026-09-20T01:00:53.923392Z","epoch_age_seconds":58902,"freshness":"FRESH","line1":"1 69032U 26101H   26263.04229078  .00012686  00000+0  39462-3 0  9990","line2":"2 69032  97.2839 116.6077 0001684  96.1315 264.0120 15.33444973 21115","mean_motion":15.33444973,"eccentricity":0.0001684,"inclination_deg":97.2839,"raan_deg":116.6077,"arg_perigee_deg":96.1315,"mean_anomaly_deg":264.012,"bstar":0.00039462,"rev_number":2111,"period_min":93.90620631028,"perigee_km":464.39077905623,"apogee_km":466.69573056605,"semimajor_km":6843.6802548111,"source":"CELESTRAK","updated_at":"2026-09-20T09:00:44.059315Z"}}}